Regional Weather Roundup
Issued by NWS Sterling, VA

Home | Current Version | Previous Version | Graphics & Text | Print | Product List | Glossary On
Versions: 1 2 3 4 5 6 7 8 9 10 11 12 13 14 15 16 17 18 19 20 21 22 23 24 25 26 27 28 29 30 31 32 33 34 35 36 37 38 39 40 41 42 43 44 45 46 47 48 49 50
042
ASUS41 KLWX 311810
RWRLWX

REGIONAL WEATHER ROUNDUP
NATIONAL WEATHER SERVICE BALTIMORE MD/WASHINGTON DC
200 PM EDT TUE MAY 31 2016

Note: "FAIR" indicates few or no clouds below 12,000 feet
with no significant weather and/or obstructions to visibility.
 TC=TEMPERATURE CELSIUS

 * =Non NWS site. Station does not report precipitation (e.g. rain,
    snow, etc.), thunder, or fog.

DCZ001-MDZ009-015-VAZ040>042-051-053>054-311900-
WASHINGTON METRO

CITY           SKY/WX    TMP DP  RH WIND       PRES   REMARKS
WASHINGTON NAT PTSUNNY   84  67  56 E5        29.97F
DULLES         PTSUNNY   84  62  47 NE6       29.98S
ANDREWS AFB    MOSUNNY   82  66  59 N5        29.97F
FT BELVOIR     FAIR      82  67  61 CALM      29.97F
QUANTICO       FAIR      80  71  74 SW7       29.98F
LEESBURG*      FAIR      86  61  42 N6        29.99F
MANASSAS*      PTSUNNY   82  64  54 CALM      29.97F

$$

MDZ006>007-011-014-311900-
BALTIMORE METRO

CITY           SKY/WX    TMP DP  RH WIND       PRES   REMARKS
BWI AIRPORT    MOSUNNY   83  66  56 E6        29.96F
MD SCIENCE CTR   N/A     84  66  54 MISG      29.96F
MARTIN STATE   MOSUNNY   82  72  69 SE6       29.98F
ANNAPOLIS      SUNNY     76  69  79 SE9       29.97F
FORT MEADE*    MOSUNNY   81  68  65 S6        30.00S

$$

MDZ012-015-019>023-311900-
MARYLAND EASTERN SHORE

CITY           SKY/WX    TMP DP  RH WIND       PRES   REMARKS
OCEAN CITY     SUNNY     74  67  78 S3        29.98S
SALISBURY      MOSUNNY   81  68  64 CALM      29.96F
CAMBRIDGE*     SUNNY     79  66  65 N5        29.97S
EASTON*        PTSUNNY   82  75  78 NW8       30.01F

$$

MDZ017>025-311900-
SOUTHERN MARYLAND

CITY           SKY/WX    TMP DP  RH WIND       PRES   REMARKS
PATUXENT RIVER MOSUNNY   79  67  66 E7        29.98S
ST INIGOES     MOSUNNY   78  70  76 S7        29.97F
LEONARDTOWN*   MOSUNNY   79  64  61 E5        29.99F

$$

MDZ003>005-311900-
NORTH CENTRAL MARYLAND

CITY           SKY/WX    TMP DP  RH WIND       PRES   REMARKS
FREDERICK*     SUNNY     84  61  45 N3        30.01F
HAGERSTOWN APT MOSUNNY   85  51  31 NE5       29.99S
WESTMINSTER*   SUNNY     84  75  74 NE6       30.00F HX  92

$$

MDZ501>502-311900-
WESTERN MARYLAND

CITY           SKY/WX    TMP DP  RH WIND       PRES   REMARKS
OAKLAND*       SUNNY     72  50  46 N5        30.11S
CUMBERLAND*    SUNNY     82  61  47 CALM      30.04F

$$

VAZ025>031-311900-
SHENANDOAH VALLEY

CITY           SKY/WX    TMP DP  RH WIND       PRES   REMARKS
WINCHESTER*    FAIR      82  59  44 N6        30.00F
FRONT ROYAL*   FAIR      81  63  54 CALM      30.00S
LURAY*         FAIR      82  59  44 E8        30.01F
NEW MARKET*    FAIR     N/A N/A N/A NE5       29.98F
STAUNTON*      FAIR      81  57  44 E9        30.03F
WAYNESBORO*    FAIR      81  50  33 N8        30.03S

$$

WVZ021-048>050-054>055-311900-
EASTERN WEST VIRGINIA PANHANDLE

CITY           SKY/WX    TMP DP  RH WIND       PRES   REMARKS
MARTINSBURG    PTSUNNY   82  58  43 NE6       29.99F
PETERSBURG*    FAIR      83  58  41 SE8       30.01F

$$

VAZ036>039-050-311900-
CENTRAL FOOTHILLS

CITY           SKY/WX    TMP DP  RH WIND       PRES   REMARKS
CHARLOTTESVILL PTSUNNY   83  63  50 E5        29.98F
CULPEPER*      PTSUNNY   85  67  54 NE6       29.98F
ORANGE*        FAIR      84  68  58 CALM      30.00F
GORDONSVILLE*  MOCLDY    83  69  61 NE3       29.98F
WARRENTON*     FAIR      86  58  38 N3        29.97F

$$

VAZ055>057-311900-
NORTH AND CENTRAL PIEDMONT

CITY           SKY/WX    TMP DP  RH WIND       PRES   REMARKS
FREDERICKSBRG* FAIR      84  69  61 E5        29.97F
STAFFORD*      FAIR      82  65  56 CALM      30.02F

$$

NCZ024-NYZ072-PAZ021-071-VAZ022-071-311900-
OTHER REGIONAL OBSERVATIONS

CITY           SKY/WX    TMP DP  RH WIND       PRES   REMARKS
NEW YORK CITY  MOSUNNY   85  60  42 CALM      29.97F
PHILADELPHIA   MOSUNNY   87  57  35 NE7       29.94F
PITTSBURGH     PTSUNNY   83  52  34 VRB5      30.01F
ROANOKE        FAIR      83  65  54 CALM      30.02F
RICHMOND       PTSUNNY   80  66  62 VRB7      29.98S
RALEIGH        PTSUNNY   83  67  58 VRB5      29.96F

$$

ANZ530>537-311900-
MARINE OBSERVATIONS

STATION/POSITION TIME  TEMP    WIND        PRES
                       AIR SEA DIR/SP/G
                 (UTC) (F)     (DEG/KT/KT) (MB)
THOMAS PT LIGHT  1800   76 69  180/  2/  3 1016.4F
BALT KEY BRIDGE  1700   76     150/  6/  7 1015.0F
COVE POINT       1700   71     160/  4/  4 1016.0F
LEWISETTA        1700   71 73  130/  5/  6 1015.0F
SOLOMONS ISLAND  1700   73 67  100/  4/  4   N/A
PINEY POINT      1700          170/  6/  7   N/A

$$





USA.gov is the U.S. government's official web portal to all federal, state and local government web resources and services.